Location: St. Louis
(38.6270°N, 90.1994°W)
Time: 03:53:30
(UTC-05:00)

RS-15 - Pass Details

Date: 02 February 2022
Orbit: 1881 x 2163 km, 64.8° (Epoch: 20 May)

Event Time Altitude Azimuth Distance (km) Brightness Sun altitude
Rises 02:18:08 0° 326° (NNW) 5,684 10.5 -55.3°
Enters shadow 02:19:11 - 326° (NW) 5,383 10.3 -55.1°
Exits shadow 02:47:47 - 165° (SSE) 5,179 10.2 -50.1°
Sets 02:49:03 0° 164° (SSE) 5,548 10.4 -49.9°
